User: anonymous   Login
Location: Unspecified
(0.0000°N, 0.0000°E)
Time: 16:41:00
(UTC+00:00)
Language:

AIST 1 - Orbit

View from above orbital plane
View from above orbital plane
View from above satellite
View from above satellite

Ground track
Ground track

The orbit is defined by the following mean orbital elements,

1 39492U          26088.22830704 +.00000000 +00000-0 +14432-3 0 00007
2 39492  82.4192 348.3300 0016497 180.3027 179.8187 14.95839415    04
Epoch (UTC): 29 March 2026 05:28:45
Eccentricity: 0.0016497
inclination: 82.4192°
perigee height: 568 km
apogee height: 591 km
right ascension of ascending node: 348.3300°
argument of perigee: 180.3027°
revolutions per day: 14.95839415
mean anomaly at epoch: 179.8187°

The dashed part of the orbit path shows where the satellite is in the earth's shadow,  

DLR